Regional Weather Roundup
Issued by NWS Midland/Odessa, TX

Home | Current Version | Previous Version | Text Only | Print | Product List | Glossary On
Versions: 1 2 3 4 5 6 7 8 9 10 11 12 13 14 15 16 17 18 19 20 21 22 23 24 25 26 27 28 29 30 31 32 33 34 35 36 37 38 39 40 41 42 43 44 45 46 47 48 49 50
000
ASUS44 KMAF 181810
RWRMAF
MIDLAND AREA WEATHER ROUNDUP
NATIONAL WEATHER SERVICE MIDLAND TX
100 PM CDT FRI AUG 18 2017

...IN SOUTHWEST TEXAS AND SOUTHEAST NEW MEXICO...

CITY           SKY/WX    TMP DP  RH WIND       PRES   REMARKS
ALPINE         CLOUDY    82  60  47 W7        30.26F
ANDREWS        FAIR      88  63  43 S5        30.14S
ARTESIA        SUNNY     88  63  42 E9G16     30.12S
BIG SPRING     MOSUNNY   87  69  53 S10G16    30.13F
CARLSBAD       SUNNY     87  65  47 SE12      30.09F
DRYDEN           N/A     89  71  55 E10       30.06F
FORT STOCKTON  CLOUDY    89  61  38 SW8       30.10F THUNDER
GUAD PASS      SUNNY     81  59  47 SW8       30.27F
HOBBS          MOSUNNY   86  63  45 SE9       30.16S
MARFA          CLOUDY    77  62  59 S7        30.25F
MIDLAND AIRPK  SUNNY     92  65  40 S9        30.12F
MIDLAND INTL   SUNNY     89  67  47 S9        30.11F
ODESSA         SUNNY     89  67  47 S13       30.12F
PECOS          SUNNY     91  62  38 N7G17     30.07F
PRESIDIO       FAIR      86  62  44 SE3       30.12F
SEMINOLE       MOSUNNY   89  62  40 SW5       30.15F
SNYDER         MOSUNNY   87  69  54 S9        30.12F
WINK           SUNNY     89  62  40 S6        30.08F
$$
...OTHER STATIONS IN TEXAS...

CITY           SKY/WX    TMP DP  RH WIND       PRES   REMARKS
ABILENE        MOSUNNY   86  72  62 W8        30.10F
AMARILLO       SUNNY     80  65  59 S15       30.14F
AUSTIN         MOSUNNY   94  71  47 S10G17    30.02F HX 101
BROWNSVILLE    PTSUNNY   91  75  59 E7        29.99F HX 101
CORPUS CHRISTI NOT AVBL
DALLAS FTW     CLOUDY    92  74  55 W10       30.03F HX 101
DEL RIO        MOSUNNY   90  73  57 VRB5      30.00F
EL PASO        NOT AVBL
HOUSTON INT    MOSUNNY   94  75  54 SW8       30.03F HX 105
LUBBOCK        MOSUNNY   82  67  60 SE7       30.15F
SAN ANGELO     CLOUDY    84  69  60 VRB6      30.09F
SAN ANTONIO    NOT AVBL
WACO           SUNNY     93  70  46 VRB6      30.03F
WICHITA FALLS  NOT AVBL
$$
...OTHER LOCATIONS IN NEW MEXICO...

CITY           SKY/WX    TMP DP  RH WIND       PRES   REMARKS
ALAMOGORDO     SUNNY     86  55  35 SW6       30.16F
ALBUQUERQUE    MOSUNNY   84  37  18 VRB5      30.25F
CANNON AFB     MOSUNNY   80  70  71 S14G21    30.20F
CLOVIS         NOT AVBL
HOLLOMAN AFB   SUNNY     94  57  29 CALM      30.16F
ROSWELL        NOT AVBL
RUIDOSO        PTSUNNY   82  39  21 N7        30.36S
SANTA FE       SUNNY     83  36  18 CALM      30.31F
TRUTH OR CONSE SUNNY     89  39  17 SE6       30.19F
TUCUMCARI      SUNNY     88  60  38 S7        30.13F
$$



USA.gov is the U.S. government's official web portal to all federal, state and local government web resources and services.